Regional Weather Roundup
Issued by NWS

Current Version | Previous Version | Text Only | Print | Product List | Glossary On
Versions: 1 2 3 4 5 6 7 8 9 10 11 12 13 14 15 16 17 18 19 20 21 22 23 24 25 26 27 28 29 30 31 32 33 34 35 36 37 38 39 40 41 42 43 44 45 46 47 48 49 50
000
ASUS43 KDMX 172307
RWRIA

WEATHER ROUNDUP FOR IOWA
NATIONAL WEATHER SERVICE DES MOINES IA
600 PM CDT WED SEP 17 2014

NOTE: "FAIR" INDICATES FEW OR NO CLOUDS BELOW 12,000 FEET WITH NO
SIGNIFICANT WEATHER AND/OR OBSTRUCTIONS TO VISIBILITY.

* - THESE STATIONS ARE NOT NWS STATIONS...THUS NOT UNDER NWS
QUALITY CONTROL.  THEY ALSO DO NOT REPORT WEATHER SUCH
AS PRECIPITATION OR FOG.

IAZ001>003-012>014-020>022-031>034-043>046-180000-
   NORTHWEST IOWA

CITY           SKY/WX    TMP DP  RH WIND       PRES   REMARKS
CARROLL *      MOSUNNY   75  55  50 E6        29.92S
CHEROKEE *     MOSUNNY   75  55  50 SE5       29.92R
DENISON *      SUNNY     75  59  57 NE3       29.90R
LE MARS *      SUNNY     77  59  53 S3        29.91S
ORANGE CITY *  SUNNY     77  54  44 CALM      29.92R
SHELDON *      MOSUNNY   73  59  60 SE5       29.91R
SIOUX CITY     SUNNY     82  52  35 CALM      29.89S HX  81
SPENCER        MOSUNNY   72  57  59 E6        29.93S
STORM LAKE *   SUNNY     73  59  60 VRB6      29.93R
$$

IAZ055>058-069>071-079>083-090>094-180000-
   SOUTHWEST IOWA

CITY           SKY/WX    TMP DP  RH WIND       PRES   REMARKS
ATLANTIC *     MOSUNNY   77  59  53 VRB3      29.90S
AUDUBON *      SUNNY     75  55  50 CALM      29.93S
CLARINDA *     SUNNY     75  63  64 CALM      29.92R
COUNCIL BLFS * SUNNY     77  64  65 E6        29.89S
CRESTON *      MOSUNNY   73  59  60 E6        29.93R
HARLAN  *      SUNNY     77  59  53 E5        29.94S
LAMONI         SUNNY     73  59  61 CALM      29.92R
SHENANDOAH *   SUNNY     77  63  61 SE8       29.90S
$$

IAZ047>049-059>061-072>074-084-180000-
   CENTRAL IOWA

CITY           SKY/WX    TMP DP  RH WIND       PRES   REMARKS
AMES           SUNNY     70  57  63 E3        29.93S
ANKENY *       CLOUDY    73  55  53 CALM      29.93R
CHARITON *     SUNNY     73  57  56 E8        29.93S
DES MOINES     MOSUNNY   74  57  55 E5        29.93R
GRINNELL*      SUNNY     72  54  53 CALM      29.94S
KNOXVILLE *    CLOUDY    72  57  60 E5        29.92S
MARSHALLTOWN   SUNNY     69  55  60 E5        29.94R
PELLA *        MOSUNNY   72  57  60 SE3       29.94S
PERRY *          N/A     73  55  53 SE6       29.93R
$$

IAZ004>006-015-016-023>025-035-036-180000-
   NORTH CENTRAL IOWA

CITY           SKY/WX    TMP DP  RH WIND       PRES   REMARKS
ALGONA *       SUNNY     72  55  56 CALM      29.94R
CLARION *        N/A     73  52  46 SE5       29.94S
ESTHERVILLE    SUNNY     72  57  59 SE3       29.93S
FORT DODGE *   CLOUDY    73  54  49 SE3       29.94S
MASON CITY     MOSUNNY   72  52  49 E3        29.96R
FOREST CITY *  MOSUNNY   72  54  53 E5        29.94S
IOWA FALLS *     N/A     72  50  46 CALM      29.96R
$$

IAZ007>011-017>019-026>030-037>042-050>054-066-180000-
   NORTHEAST IOWA

CITY           SKY/WX    TMP DP  RH WIND       PRES   REMARKS
CEDAR RAPIDS   MOSUNNY   68  55  63 S3        29.95R
CHARLES CITY * SUNNY     70  50  49 SE3       29.96S
CLINTON *      SUNNY     68  52  56 E3        29.99S
DECORAH *      SUNNY     68  52  56 CALM      29.96S
DUBUQUE        SUNNY     67  50  54 CALM      29.97S
MONTICELLO *   SUNNY     70  52  52 CALM      29.96R
OELWEIN *      SUNNY     70  48  46 S5        29.96S
WATERLOO       SUNNY     71  49  45 CALM      29.94S
$$

IAZ064-065-067-068-078-180000-
   EAST CENTRAL IOWA

CITY           SKY/WX    TMP DP  RH WIND       PRES   REMARKS
DAVENPORT      SUNNY     68  50  52 S3        29.96S
IOWA CITY      SUNNY     68  57  68 SE5       29.96R
MT. PLEASANT * SUNNY     72  50  46 SE3       29.95S
MUSCATINE *    SUNNY     70  52  52 CALM      29.95S
QUAD CITIES    SUNNY     70  50  49 CALM      29.95S
$$

IAZ062-063-075>077-085>089-095>099-180000-
   SOUTHEAST IOWA

CITY           SKY/WX    TMP DP  RH WIND       PRES   REMARKS
BURLINGTON     SUNNY     69  54  58 VRB3      29.95S
FAIRFIELD *    SUNNY     70  54  56 E5        29.95R
FORT MADISON * SUNNY     70  54  56 CALM      29.95S
KEOKUK *       CLOUDY    68  59  73 CALM      29.94R
OSKALOOSA *      N/A     68  57  68 CALM      29.94R
CENTERVILLE *  MOSUNNY   68  63  83 E6        29.94F
OTTUMWA        SUNNY     69  56  62 SE5       29.94R
WASHINGTON *   SUNNY     70  55  60 S5        29.95R
$$

ABBREVIATIONS USED IN REMARKS
   TC - TEMPERATURES IN CELSIUS
  WCI - WIND CHILL INDEX
   HX - HEAT INDEX
  VSB - VISIBILITY
$$




USA.gov is the U.S. government's official web portal to all federal, state and local government web resources and services.